Home > Weather > Jørpeland > Past weeks

Flag for Norway Past Weather in Jørpeland, Norway — Yesterday and Last 2 Weeks

Now
54 °F

Scattered showers. Partly cloudy.


Feels Like: 52 °F
Forecast: 48 / 53 °F
Wind: 7 mph from South

Location: Stavanger / Sola

Current Time: Jul 2, 2016 at 12:32:55 AM

Latest Report: Jul 1, 2016 at 11:50 PM


Visibility: N/A

Pressure: 29.59 "Hg

Humidity: 94%

Dew Point: 52 °F

Location of JørpelandLocation

Past Weather in Jørpeland — Graph

°F

Jørpeland Temperature Yesterday

Maximum temperature yesterday: 61 °F (at 4:20 PM)
Minimum temperature yesterday: 54 °F (at 12:20 AM)
Average temperature yesterday: 57 °F

High & Low Weather Summary for the Past Weeks

 TemperatureHumidityPressure
High70 °F (Jun 23, 2:50 PM)100% (Jun 17, 1:50 AM)30.12 "Hg (Jun 17, 1:50 AM)
Low45 °F (Jun 20, 2:50 AM)56% (Jun 22, 12:20 PM)29.39 "Hg (Jun 30, 7:50 AM)
Average58 °F82%29.83 "Hg
* Reported Jun 16 11:20 PM — Jul 1 11:20 PM, Jørpeland, Weather by CustomWeather, © 2016

Note: Actual official high and low records may vary slightly from our data, if they occured in-between our weather recording intervals... More about our weather records

Advertising

Jørpeland Weather History for the Previous 24 Hours

Scroll right to see more
 ConditionsComfort  
Time TempWeatherWind HumidityBarometerVisibility
11:20 PM
Fri, Jul 1
54 °FScattered showers. Scattered clouds.8 mph94%29.59 "HgN/A
10:50 PM55 °FScattered showers. Scattered clouds.9 mph88%29.59 "HgN/A
10:20 PM55 °FRain showers. Broken clouds.15 mph82%29.59 "Hg5 mi
9:50 PM57 °FPartly sunny.14 mph82%29.59 "HgN/A
9:20 PM57 °FScattered clouds.16 mph82%29.56 "HgN/A
8:50 PM57 °FScattered clouds.16 mph88%29.56 "HgN/A
8:20 PM59 °FScattered showers. Partly sunny.16 mph82%29.56 "HgN/A
7:50 PM59 °FPartly sunny.17 mph82%29.56 "HgN/A
7:20 PM59 °FScattered showers. Broken clouds.14 mph82%29.53 "HgN/A
6:50 PM59 °FBroken clouds.15 mph82%29.53 "HgN/A
6:20 PM59 °FBroken clouds.14 mph82%29.53 "HgN/A
5:50 PM59 °FBroken clouds.16 mph82%29.53 "HgN/A
5:20 PM59 °FPartly sunny.16 mph88%29.50 "HgN/A
4:50 PM59 °FScattered showers. Broken clouds.15 mph88%29.50 "HgN/A
4:20 PM61 °FSprinkles. Broken clouds.16 mph83%29.47 "HgN/A
3:50 PM59 °FSprinkles. Broken clouds.18 mph88%29.47 "HgN/A
3:20 PM59 °FPartly sunny.21 mph88%29.47 "HgN/A
2:50 PM57 °FDrizzle. Fog.12 mph88%29.47 "Hg2 mi
2:20 PM57 °FMostly cloudy.16 mph88%29.47 "HgN/A
1:50 PM57 °FLight rain. Partly sunny.17 mph82%29.47 "HgN/A
1:20 PM57 °FLight rain. Partly sunny.13 mph77%29.47 "HgN/A
12:50 PM55 °FLight rain. Broken clouds.7 mph82%29.50 "HgN/A
12:20 PM57 °FDrizzle. Broken clouds.10 mph77%29.50 "HgN/A
11:50 AM57 °FBroken clouds.7 mph77%29.53 "HgN/A
11:20 AM55 °FLight rain. Broken clouds.3 mph82%29.53 "HgN/A
10:50 AM55 °FDrizzle. Partly sunny.6 mph82%29.53 "HgN/A
10:20 AM55 °FLight rain. Partly sunny.7 mph77%29.56 "HgN/A
9:50 AM55 °FLight rain. Broken clouds.7 mph82%29.56 "HgN/A
9:20 AM55 °FLight rain. Broken clouds.10 mph77%29.59 "HgN/A
8:50 AM55 °FDrizzle. Broken clouds.8 mph77%29.59 "HgN/A
8:20 AM55 °FDrizzle. Broken clouds.7 mph77%29.59 "HgN/A
7:50 AM55 °FDrizzle. Broken clouds.12 mph77%29.62 "HgN/A
7:20 AM55 °FBroken clouds.10 mph77%29.62 "HgN/A
6:50 AM55 °FBroken clouds.10 mph82%29.62 "HgN/A
6:20 AM55 °FBroken clouds.7 mph82%29.65 "HgN/A
5:50 AM54 °FPartly sunny.5 mph88%29.65 "HgN/A
4:50 AM54 °FPassing clouds.7 mph88%29.65 "HgN/A
3:50 AM54 °FPassing clouds.7 mph88%29.68 "HgN/A
2:50 AM55 °FPartly cloudy.7 mph88%29.68 "HgN/A
1:50 AM55 °FSprinkles. Passing clouds.6 mph82%29.71 "HgN/A
12:50 AM54 °FPassing clouds.6 mph88%29.71 "HgN/A
12:20 AM54 °FPassing clouds.7 mph88%29.71 "HgN/A
Weather by CustomWeather, © 2016

See weather overviewHow to use our weather pages